• In Uzbekistan
  • List of Countries
  • For 7 days
  • Water Temperature
  • Satellite Maps
  • Weather Map
  • Weather Widgets
  • user-avatar
    Login

    Hourly Weather Salvador

    Today, 18 July, Wednesday

    Time Temperature Precipitation Wind Pressure Humidity
    00:00 +21°C° 0.3 mm 5 mps 761 mmHg 95%
    01:00 +21°C° 0.1 mm 5 mps 761 mmHg 95%
    02:00 +21°C° 0.1 mm 5 mps 761 mmHg 94%
    03:00 +21°C° 0.1 mm 5 mps 760 mmHg 94%
    04:00 +21°C° 0 mm 4 mps 760 mmHg 94%
    05:00 +21°C° 0 mm 4 mps 760 mmHg 94%
    06:00 +20°C° 0 mm 4 mps 760 mmHg 94%
    07:00 +22°C° 0 mm 4 mps 761 mmHg 87%
    08:00 +25°C° 0 mm 4 mps 761 mmHg 80%
    09:00 +26°C° 0 mm 4 mps 762 mmHg 74%
    10:00 +27°C° 0.1 mm 4 mps 762 mmHg 68%
    11:00 +28°C° 0.1 mm 4 mps 761 mmHg 62%
    12:00 +29°C° 0.1 mm 4 mps 761 mmHg 57%
    13:00 +29°C° 0.1 mm 4 mps 760 mmHg 59%
    14:00 +29°C° 0.1 mm 4 mps 760 mmHg 61%
    15:00 +28°C° 0.1 mm 4 mps 759 mmHg 64%
    16:00 +27°C° 0.1 mm 4 mps 759 mmHg 72%
    17:00 +25°C° 0.1 mm 4 mps 759 mmHg 79%
    18:00 +23°C° 0.1 mm 4 mps 759 mmHg 87%
    19:00 +22°C° 0.3 mm 4 mps 760 mmHg 89%
    20:00 +22°C° 0.3 mm 4 mps 760 mmHg 92%
    21:00 +22°C° 0.3 mm 4 mps 760 mmHg 94%
    22:00 +22°C° 0.4 mm 4 mps 760 mmHg 95%
    23:00 +22°C° 0.4 mm 5 mps 760 mmHg 95%

    Tomorrow, 19 July, Thursday

    Time Temperature Precipitation Wind Pressure Humidity
    00:00 +22°C° 0.4 mm 5 mps 760 mmHg 96%
    01:00 +22°C° 0.5 mm 5 mps 760 mmHg 96%
    02:00 +22°C° 0.5 mm 5 mps 759 mmHg 96%
    03:00 +22°C° 0.5 mm 5 mps 759 mmHg 96%
    04:00 +22°C° 0.5 mm 5 mps 759 mmHg 96%
    05:00 +22°C° 0.5 mm 5 mps 759 mmHg 96%
    06:00 +22°C° 0.5 mm 5 mps 759 mmHg 96%
    07:00 +23°C° 0.5 mm 5 mps 760 mmHg 94%
    08:00 +23°C° 0.5 mm 6 mps 760 mmHg 93%
    09:00 +24°C° 0.5 mm 6 mps 761 mmHg 91%
    10:00 +26°C° 0.5 mm 6 mps 760 mmHg 89%
    11:00 +26°C° 0.5 mm 6 mps 760 mmHg 87%
    12:00 +27°C° 0.5 mm 6 mps 760 mmHg 86%
    13:00 +27°C° 0.4 mm 6 mps 759 mmHg 85%
    14:00 +26°C° 0.4 mm 5 mps 759 mmHg 85%
    15:00 +26°C° 0.4 mm 5 mps 758 mmHg 84%
    16:00 +25°C° 0.3 mm 5 mps 759 mmHg 87%
    17:00 +25°C° 0.3 mm 5 mps 759 mmHg 91%
    18:00 +23°C° 0.3 mm 5 mps 759 mmHg 94%
    19:00 +22°C° 0.2 mm 4 mps 759 mmHg 94%
    20:00 +22°C° 0.2 mm 4 mps 760 mmHg 95%
    21:00 +22°C° 0.2 mm 4 mps 760 mmHg 95%
    22:00 +22°C° 0.1 mm 4 mps 760 mmHg 95%
    23:00 +22°C° 0.1 mm 4 mps 760 mmHg 95%

    Day after tomorrow, 20 July, Friday

    Time Temperature Precipitation Wind Pressure Humidity
    00:00 +21°C° 0.1 mm 4 mps 760 mmHg 95%
    01:00 +21°C° 0.2 mm 4 mps 759 mmHg 96%
    02:00 +21°C° 0.2 mm 4 mps 759 mmHg 96%
    03:00 +21°C° 0.2 mm 4 mps 758 mmHg 96%
    04:00 +21°C° 0.7 mm 4 mps 759 mmHg 96%
    05:00 +21°C° 0.7 mm 5 mps 759 mmHg 96%
    06:00 +21°C° 0.7 mm 5 mps 759 mmHg 97%
    07:00 +22°C° 0.5 mm 5 mps 759 mmHg 95%
    08:00 +23°C° 0.5 mm 5 mps 760 mmHg 93%
    09:00 +25°C° 0.5 mm 5 mps 760 mmHg 91%
    10:00 +26°C° 0.3 mm 5 mps 760 mmHg 87%
    11:00 +26°C° 0.3 mm 5 mps 760 mmHg 83%
    12:00 +27°C° 0.3 mm 5 mps 760 mmHg 79%
    13:00 +27°C° 0.2 mm 5 mps 759 mmHg 78%
    14:00 +27°C° 0.2 mm 5 mps 759 mmHg 78%
    15:00 +27°C° 0.2 mm 5 mps 758 mmHg 78%
    16:00 +26°C° 0.1 mm 4 mps 758 mmHg 83%
    17:00 +25°C° 0.1 mm 4 mps 759 mmHg 88%
    18:00 +22°C° 0.1 mm 4 mps 759 mmHg 94%
    19:00 +22°C° 0.1 mm 4 mps 759 mmHg 94%
    20:00 +22°C° 0.1 mm 4 mps 760 mmHg 95%
    21:00 +22°C° 0.1 mm 4 mps 760 mmHg 95%
    22:00 +21°C° 0.1 mm 3 mps 760 mmHg 96%
    23:00 +21°C° 0.1 mm 3 mps 760 mmHg 96%

    21 July, Saturday

    Time Temperature Precipitation Wind Pressure Humidity
    00:00 +21°C° 0.1 mm 3 mps 760 mmHg 96%
    01:00 +21°C° 0.2 mm 3 mps 759 mmHg 96%
    02:00 +21°C° 0.2 mm 3 mps 759 mmHg 96%
    03:00 +21°C° 0.2 mm 2 mps 758 mmHg 96%
    04:00 +21°C° 0.4 mm 3 mps 759 mmHg 96%
    05:00 +21°C° 0.4 mm 3 mps 759 mmHg 96%
    06:00 +21°C° 0.4 mm 3 mps 760 mmHg 97%
    07:00 +22°C° 0.4 mm 3 mps 760 mmHg 94%
    08:00 +24°C° 0.4 mm 3 mps 761 mmHg 91%
    09:00 +25°C° 0.4 mm 3 mps 761 mmHg 88%
    10:00 +26°C° 0.2 mm 3 mps 761 mmHg 83%
    11:00 +27°C° 0.2 mm 3 mps 760 mmHg 78%
    12:00 +28°C° 0.2 mm 3 mps 760 mmHg 72%
    13:00 +28°C° 0.2 mm 3 mps 760 mmHg 74%
    14:00 +28°C° 0.2 mm 4 mps 759 mmHg 75%
    15:00 +27°C° 0.2 mm 4 mps 759 mmHg 76%
    16:00 +26°C° 0.1 mm 4 mps 759 mmHg 81%
    17:00 +25°C° 0.1 mm 4 mps 759 mmHg 86%
    18:00 +22°C° 0.1 mm 4 mps 759 mmHg 90%
    19:00 +22°C° 0.2 mm 4 mps 760 mmHg 91%
    20:00 +22°C° 0.2 mm 4 mps 760 mmHg 92%
    21:00 +21°C° 0.2 mm 4 mps 760 mmHg 93%
    22:00 +21°C° 0.2 mm 3 mps 760 mmHg 94%
    23:00 +21°C° 0.2 mm 3 mps 760 mmHg 94%

    22 July, Sunday

    Time Temperature Precipitation Wind Pressure Humidity
    00:00 +21°C° 0.2 mm 3 mps 760 mmHg 94%
    01:00 +21°C° 0.3 mm 3 mps 759 mmHg 95%
    02:00 +21°C° 0.3 mm 3 mps 759 mmHg 95%
    03:00 +21°C° 0.3 mm 3 mps 759 mmHg 96%
    04:00 +21°C° 0.3 mm 3 mps 759 mmHg 96%
    05:00 +21°C° 0.3 mm 3 mps 759 mmHg 96%
    06:00 +21°C° 0.3 mm 4 mps 760 mmHg 97%
    07:00 +22°C° 0.5 mm 4 mps 760 mmHg 93%
    08:00 +23°C° 0.5 mm 4 mps 761 mmHg 90%
    09:00 +26°C° 0.5 mm 4 mps 761 mmHg 86%
    10:00 +26°C° 0.4 mm 4 mps 761 mmHg 84%
    11:00 +26°C° 0.4 mm 4 mps 761 mmHg 81%
    12:00 +27°C° 0.4 mm 4 mps 760 mmHg 79%
    13:00 +27°C° 0.1 mm 4 mps 760 mmHg 78%
    14:00 +27°C° 0.1 mm 4 mps 760 mmHg 76%
    15:00 +27°C° 0.1 mm 4 mps 759 mmHg 75%
    16:00 +26°C° 0 mm 4 mps 760 mmHg 79%
    17:00 +25°C° 0 mm 4 mps 760 mmHg 82%
    18:00 +22°C° 0 mm 4 mps 760 mmHg 86%
    19:00 +22°C° 0 mm 4 mps 760 mmHg 88%
    20:00 +22°C° 0 mm 3 mps 761 mmHg 90%
    21:00 +21°C° 0 mm 3 mps 761 mmHg 91%
    22:00 +21°C° 0.1 mm 3 mps 761 mmHg 92%
    23:00 +21°C° 0.1 mm 3 mps 761 mmHg 92%

    23 July, Monday

    Time Temperature Precipitation Wind Pressure Humidity
    00:00 +21°C° 0.1 mm 3 mps 761 mmHg 93%
    01:00 +21°C° 0.1 mm 3 mps 761 mmHg 93%
    02:00 +21°C° 0.1 mm 3 mps 760 mmHg 94%
    03:00 +21°C° 0.1 mm 3 mps 760 mmHg 94%
    04:00 +21°C° 0 mm 3 mps 760 mmHg 95%
    05:00 +21°C° 0 mm 3 mps 760 mmHg 95%
    06:00 +20°C° 0 mm 3 mps 761 mmHg 96%
    07:00 +22°C° 0 mm 3 mps 761 mmHg 89%
    08:00 +25°C° 0 mm 4 mps 761 mmHg 83%
    09:00 +27°C° 0 mm 4 mps 762 mmHg 77%
    10:00 +28°C° 0.1 mm 4 mps 761 mmHg 73%
    11:00 +28°C° 0.1 mm 4 mps 761 mmHg 69%
    12:00 +29°C° 0.1 mm 4 mps 761 mmHg 64%
    13:00 +29°C° 0.2 mm 4 mps 760 mmHg 67%
    14:00 +28°C° 0.2 mm 4 mps 760 mmHg 69%
    15:00 +28°C° 0.2 mm 4 mps 759 mmHg 71%
    16:00 +27°C° 0.1 mm 4 mps 759 mmHg 78%
    17:00 +25°C° 0.1 mm 4 mps 760 mmHg 84%
    18:00 +23°C° 0.1 mm 4 mps 760 mmHg 90%
    19:00 +23°C° 0.2 mm 4 mps 760 mmHg 92%
    20:00 +22°C° 0.2 mm 5 mps 761 mmHg 93%
    21:00 +22°C° 0.2 mm 5 mps 761 mmHg 95%
    22:00 +22°C° 0.1 mm 5 mps 761 mmHg 95%
    23:00 +22°C° 0.1 mm 5 mps 761 mmHg 95%
    Show more